Weather History for Troy, MI

Change the Weather History Date:

Friday, August 16, 2013

  Actual Average (KDET) Record (KDET)
Temperature  
Mean Temperature 68 °F -  
Max Temperature 79 °F 82 °F 92 °F (1950)
Min Temperature 57 °F 64 °F 48 °F (1979)
Cooling Degree Days 3    
Growing Degree Days 18 (Base 50)    
Moisture  
Dew Point 51 °F    
Average Humidity 55    
Maximum Humidity 84    
Minimum Humidity 32    
Precipitation  
Precipitation 0.00 in - - ()
Sea Level Pressure  
Sea Level Pressure 30.19 in    
Wind  
Wind Speed 3 mph (NE)    
Max Wind Speed 9 mph    
Max Gust Speed -    
Visibility 10 miles    
Events      
Averages and records for this station are not official NWS values.
T = Trace of Precipitation, MM = Missing Value Source: NWS Daily Summary

Daily Weather History Graph

Daily Weather History Graph

Search for Another Location

Airport:

Trip Planner

Search our weather history database for the weather conditions in past years. The results will help you decide how hot, cold, wet, or windy it might be!

Date:

Astronomy

Aug. 16, 2013 Rise Set
Actual Time 6:40 AM EDT 8:32 PM EDT
Civil Twilight 6:10 AM EDT 9:02 PM EDT
Nautical Twilight 5:33 AM EDT 9:39 PM EDT
Astronomical Twilight 4:53 AM EDT 10:18 PM EDT
Moon 4:52 PM EDT (8/16) 1:40 AM EDT (8/16)
Length of Visible Light 14h 51m
Length of Day
13h 51m
Waxing Gibbous, 74% of the Moon is Illuminated
Aug 16
Waxing Gibbous
Aug 20
Full
Aug 28
Last Quarter
Sep 5
New
Sep 12
First Quarter

Hourly Weather History & Observations

Time (EDT) Temp. Dew Point Humidity Pressure Visibility Wind Dir Wind Speed Gust Speed Precip Events Conditions
12:14 AM 64.4 °F 50.9 °F 62% 30.15 in 10.0 mi Calm Calm - N/A   Clear
12:35 AM 63.9 °F 51.3 °F 64% 30.15 in 10.0 mi WSW 3.5 mph - N/A   Clear
12:55 AM 63.5 °F 51.4 °F 65% 30.15 in 10.0 mi WSW 3.5 mph - N/A   Clear
1:14 AM 63.1 °F 51.6 °F 66% 30.15 in 10.0 mi WSW 4.6 mph - N/A   Clear
1:55 AM 61.9 °F 52.0 °F 70% 30.15 in 10.0 mi WSW 4.6 mph - N/A   Clear
2:15 AM 61.9 °F 52.0 °F 70% 30.15 in 10.0 mi WSW 3.5 mph - N/A   Clear
2:35 AM 61.7 °F 51.8 °F 70% 30.15 in 10.0 mi WSW 4.6 mph - N/A   Clear
2:54 AM 61.7 °F 51.8 °F 70% 30.15 in 10.0 mi WSW 3.5 mph - N/A   Clear
3:15 AM 61.0 °F 51.8 °F 72% 30.15 in 10.0 mi WSW 3.5 mph - N/A   Clear
3:35 AM 60.6 °F 51.8 °F 73% 30.15 in 10.0 mi WSW 3.5 mph - N/A   Clear
3:54 AM 60.6 °F 52.0 °F 73% 30.15 in 10.0 mi WSW 3.5 mph - N/A   Clear
4:15 AM 60.4 °F 52.3 °F 75% 30.15 in 10.0 mi WSW 3.5 mph - N/A   Clear
4:35 AM 59.9 °F 52.7 °F 77% 30.16 in 10.0 mi Calm Calm - N/A   Clear
4:54 AM 59.4 °F 52.7 °F 79% 30.16 in 10.0 mi WSW 3.5 mph - N/A   Clear
5:15 AM 59.2 °F 52.9 °F 80% 30.16 in 10.0 mi SW 3.5 mph - N/A   Scattered Clouds
5:34 AM 58.6 °F 52.7 °F 81% 30.16 in 10.0 mi WSW 3.5 mph - N/A   Scattered Clouds
5:55 AM 58.5 °F 52.9 °F 82% 30.16 in 10.0 mi WSW 3.5 mph - N/A   Mostly Cloudy
6:15 AM 58.3 °F 52.9 °F 82% 30.17 in 10.0 mi WSW 3.5 mph - N/A   Scattered Clouds
6:34 AM 58.1 °F 52.9 °F 83% 30.17 in 10.0 mi Calm Calm - N/A   Scattered Clouds
6:55 AM 57.6 °F 52.9 °F 84% 30.17 in 10.0 mi Calm Calm - N/A   Clear
7:15 AM 57.6 °F 52.9 °F 84% 30.17 in 10.0 mi Calm Calm - N/A   Clear
7:34 AM 58.1 °F 53.1 °F 83% 30.18 in 10.0 mi Calm Calm - N/A   Clear
7:55 AM 59.4 °F 53.1 °F 80% 30.18 in 10.0 mi Calm Calm - N/A   Scattered Clouds
8:15 AM 59.7 °F 53.1 °F 79% 30.18 in 10.0 mi WNW 3.5 mph - N/A   Scattered Clouds
8:35 AM 61.0 °F 53.4 °F 76% 30.18 in 10.0 mi Calm Calm - N/A   Clear
8:55 AM 63.0 °F 54.0 °F 72% 30.19 in 10.0 mi Calm Calm - N/A   Clear
9:14 AM 64.6 °F 54.7 °F 70% 30.19 in 10.0 mi NNE 3.5 mph - N/A   Clear
9:35 AM 67.1 °F 55.0 °F 65% 30.19 in 10.0 mi NE 4.6 mph - N/A   Clear
9:55 AM 68.0 °F 55.0 °F 63% 30.19 in 10.0 mi NNE 5.8 mph - N/A   Clear
10:14 AM 69.8 °F 55.2 °F 60% 30.19 in 10.0 mi ENE 6.9 mph - N/A   Clear
10:35 AM 70.5 °F 54.5 °F 57% 30.20 in 10.0 mi ENE 5.8 mph - N/A   Clear
10:54 AM 71.6 °F 54.1 °F 54% 30.20 in 10.0 mi Calm Calm - N/A   Clear
11:15 AM 72.3 °F 54.1 °F 53% 30.20 in 10.0 mi Calm Calm - N/A   Clear
11:35 AM 73.0 °F 54.0 °F 51% 30.20 in 10.0 mi Calm Calm - N/A   Clear
11:54 AM 75.2 °F 50.5 °F 42% 30.20 in 10.0 mi Calm Calm - N/A   Clear
12:15 PM 75.4 °F 51.3 °F 43% 30.20 in 10.0 mi Calm Calm - N/A   Clear
12:35 PM 76.5 °F 49.6 °F 39% - 10.0 mi ENE 5.8 mph - N/A   Scattered Clouds
12:54 PM 75.6 °F 49.3 °F 39% 30.20 in 10.0 mi NE 6.9 mph - N/A   Scattered Clouds
1:15 PM 76.8 °F 48.2 °F 36% 30.20 in 10.0 mi North 3.5 mph - N/A   Mostly Cloudy
1:35 PM 76.8 °F 49.5 °F 38% 30.20 in 10.0 mi NNE 3.5 mph - N/A   Mostly Cloudy
1:55 PM 77.7 °F 50.2 °F 38% 30.20 in 10.0 mi North 9.2 mph - N/A   Mostly Cloudy
2:15 PM 75.2 °F 48.6 °F 39% 30.20 in 10.0 mi Calm Calm - N/A   Overcast
2:34 PM 77.7 °F 48.9 °F 36% 30.20 in 10.0 mi North 3.5 mph - N/A   Scattered Clouds
2:55 PM 78.4 °F 49.8 °F 37% 30.19 in 10.0 mi NNE 8.1 mph - N/A   Mostly Cloudy
3:15 PM 77.5 °F 50.7 °F 39% 30.19 in 10.0 mi East 3.5 mph - N/A   Scattered Clouds
3:34 PM 79.5 °F 50.0 °F 36% 30.19 in 10.0 mi North 6.9 mph - N/A   Clear
3:55 PM 79.5 °F 50.2 °F 36% 30.18 in 10.0 mi East 3.5 mph - N/A   Mostly Cloudy
4:15 PM 77.4 °F 48.4 °F 36% 30.18 in 10.0 mi NNE 3.5 mph - N/A   Scattered Clouds
4:34 PM 77.4 °F 46.9 °F 34% 30.19 in 10.0 mi Calm Calm - N/A   Clear
4:55 PM 78.8 °F 46.2 °F 32% 30.18 in 10.0 mi NE 5.8 mph - N/A   Scattered Clouds
5:15 PM 77.2 °F 47.3 °F 35% 30.19 in 10.0 mi Calm Calm - N/A   Scattered Clouds
5:34 PM 79.9 °F 47.5 °F 32% 30.18 in 10.0 mi ENE 8.1 mph - N/A   Mostly Cloudy
5:55 PM 78.3 °F 47.7 °F 34% 30.19 in 10.0 mi ESE 3.5 mph - N/A   Scattered Clouds
6:15 PM 76.8 °F 49.3 °F 38% 30.19 in 10.0 mi Calm Calm - N/A   Clear
6:35 PM 76.8 °F 49.5 °F 38% 30.19 in 10.0 mi Calm Calm - N/A   Mostly Cloudy
6:55 PM 78.4 °F 50.4 °F 37% 30.19 in 10.0 mi Calm Calm - N/A   Scattered Clouds
7:14 PM 78.4 °F 49.1 °F 36% 30.20 in 10.0 mi East 3.5 mph - N/A   Mostly Cloudy
7:35 PM 77.5 °F 49.5 °F 37% 30.20 in 10.0 mi ESE 5.8 mph - N/A   Overcast
7:54 PM 76.6 °F 48.9 °F 38% 30.20 in 10.0 mi ESE 4.6 mph - N/A   Mostly Cloudy
8:15 PM 75.0 °F 49.8 °F 41% 30.21 in 10.0 mi ESE 3.5 mph - N/A   Mostly Cloudy
8:35 PM 74.5 °F 49.5 °F 41% 30.21 in 10.0 mi ESE 3.5 mph - N/A   Scattered Clouds
8:54 PM 72.5 °F 49.5 °F 44% 30.22 in 10.0 mi Calm Calm - N/A   Clear
9:15 PM 72.9 °F 48.4 °F 42% 30.22 in 10.0 mi SE 3.5 mph - N/A   Scattered Clouds
9:35 PM 71.4 °F 48.4 °F 44% 30.23 in 10.0 mi SE 3.5 mph - N/A   Scattered Clouds
9:54 PM 70.7 °F 49.1 °F 46% 30.24 in 10.0 mi SSE 3.5 mph - N/A   Clear
10:15 PM 69.8 °F 48.9 °F 47% 30.24 in 10.0 mi Calm Calm - N/A   Clear
10:35 PM 68.0 °F 50.2 °F 53% 30.24 in 10.0 mi Calm Calm - N/A   Clear
10:54 PM 67.3 °F 50.4 °F 55% 30.24 in 10.0 mi Calm Calm - N/A   Clear
11:15 PM 67.1 °F 50.9 °F 56% 30.24 in 10.0 mi Calm Calm - N/A   Clear
11:34 PM 66.2 °F 51.3 °F 59% 30.25 in 10.0 mi Calm Calm - N/A   Clear
11:55 PM 66.0 °F 51.3 °F 59% 30.25 in 10.0 mi Calm Calm - N/A   Clear